Weather History for Lafayette, LA

Change the Weather History Date:

Thursday, March 1, 2012

  Actual Average Record
Temperature  
Mean Temperature 75 °F 59 °F  
Max Temperature 80 °F 69 °F 86 °F (1918)
Min Temperature 69 °F 49 °F 26 °F (1937)
Degree Days  
Heating Degree Days 0 7  
Month to date heating degree days 0 7  
Since 1 July heating degree days 993 1237  
Cooling Degree Days 10    
Month to date cooling degree days 10  
Year to date cooling degree days 78  
Growing Degree Days 24 (Base 50)    
Moisture  
Dew Point 68 °F    
Average Humidity 81    
Maximum Humidity 100    
Minimum Humidity 62    
Precipitation  
Precipitation 0.00 in 0.14 in 3.69 in (2002)
Month to date precipitation 0.00 0.14  
Year to date precipitation 11.56 10.26  
Snow  
Snow 0.00 in 0.00 in 0.00 in ()
Month to date snowfall 0.0 0.0  
Since 1 July snowfall 0.0 T  
Snow Depth 0.00 in    
Sea Level Pressure  
Sea Level Pressure 29.94 in    
Wind  
Wind Speed 11 mph (SSW)    
Max Wind Speed 20 mph    
Max Gust Speed 24 mph    
Visibility 7 miles    
Events      
T = Trace of Precipitation, MM = Missing Value Source: NWS Daily Summary

Daily Weather History Graph

Daily Weather History Graph

Search for Another Location

Airport:

Trip Planner

Search our weather history database for the weather conditions in past years. The results will help you decide how hot, cold, wet, or windy it might be!

Date:

Astronomy

Mar. 01, 2012 Rise Set
Actual Time 6:33 AM CST 6:07 PM CST
Civil Twilight 6:09 AM CST 6:31 PM CST
Nautical Twilight 5:41 AM CST 6:59 PM CST
Astronomical Twilight 5:13 AM CST 7:26 PM CST
Moon 11:46 AM CST (3/1) 1:13 AM CST (3/1)
Length of Visible Light 12h 21m
Length of Day
11h 33m
First Quarter, 57% of the Moon is Illuminated
Mar 1
First Quarter
Mar 8
Full
Mar 14
Last Quarter
Mar 22
New
Mar 30
First Quarter

Hourly Weather History & Observations

Time (CST) Temp. Dew Point Humidity Pressure Visibility Wind Dir Wind Speed Gust Speed Precip Events Conditions
12:50 AM 69.8 °F 69.8 °F 100% 29.98 in 0.8 mi South 6.9 mph - N/A   Mist
12:53 AM 69.8 °F 69.8 °F 100% 29.98 in 0.8 mi South 8.1 mph - N/A   Mist
1:24 AM 69.8 °F 69.8 °F 100% 29.98 in 1.2 mi South 6.9 mph - N/A   Overcast
1:36 AM 69.8 °F 69.8 °F 100% 29.98 in 2.5 mi SSW 6.9 mph - N/A   Overcast
1:53 AM 70.0 °F 69.1 °F 97% 29.97 in 2.0 mi South 8.1 mph - N/A   Overcast
2:17 AM 69.8 °F 69.8 °F 100% 29.97 in 1.5 mi SSW 6.9 mph - N/A   Overcast
2:41 AM 69.8 °F 69.8 °F 100% 29.96 in 3.0 mi SSW 8.1 mph - N/A   Overcast
2:53 AM 70.0 °F 69.1 °F 97% 29.96 in 5.0 mi SSW 10.4 mph - N/A   Overcast
3:40 AM 71.6 °F 69.8 °F 94% 29.95 in 8.0 mi SSW 9.2 mph - N/A   Overcast
3:53 AM 71.6 °F 69.8 °F 94% 29.95 in 8.0 mi SSW 10.4 mph - N/A   Overcast
4:53 AM 71.1 °F 68.0 °F 90% 29.96 in 9.0 mi SSW 10.4 mph - N/A   Overcast
5:53 AM 69.8 °F 68.0 °F 94% 29.97 in 5.0 mi SW 9.2 mph - N/A   Overcast
6:01 AM 69.8 °F 69.8 °F 100% 29.97 in 5.0 mi SW 8.1 mph - N/A   Overcast
6:53 AM 70.0 °F 68.0 °F 93% 29.98 in 6.0 mi SW 9.2 mph - N/A   Overcast
7:45 AM 69.8 °F 68.0 °F 94% 29.99 in 2.0 mi SSW 8.1 mph - N/A   Overcast
7:53 AM 69.8 °F 68.0 °F 94% 29.99 in 2.5 mi SSW 8.1 mph - N/A   Overcast
7:59 AM 69.8 °F 68.0 °F 94% 30.00 in 3.0 mi SSW 8.1 mph - N/A   Overcast
8:53 AM 72.0 °F 68.0 °F 87% 30.01 in 6.0 mi SW 11.5 mph - N/A   Overcast
9:20 AM 71.6 °F 68.0 °F 88% 30.01 in 7.0 mi SW 12.7 mph - N/A   Overcast
9:27 AM 71.6 °F 68.0 °F 88% 30.01 in 8.0 mi SSW 10.4 mph - N/A   Overcast
9:53 AM 73.0 °F 68.0 °F 84% 30.00 in 10.0 mi SSW 10.4 mph - N/A   Overcast
9:59 AM 73.4 °F 68.0 °F 83% 30.00 in 10.0 mi SW 11.5 mph - N/A   Overcast
10:53 AM 75.9 °F 66.9 °F 74% 30.00 in 10.0 mi SW 11.5 mph 19.6 mph N/A   Overcast
11:53 AM 77.0 °F 66.0 °F 69% 29.98 in 10.0 mi SW 12.7 mph - N/A   Mostly Cloudy
12:04 PM 78.8 °F 66.2 °F 65% 29.97 in 10.0 mi SW 16.1 mph 20.7 mph N/A   Mostly Cloudy
12:53 PM 78.8 °F 66.2 °F 65% 29.94 in 10.0 mi SW 16.1 mph 21.9 mph N/A   Mostly Cloudy
1:53 PM 78.8 °F 64.4 °F 61% 29.92 in 10.0 mi SW 13.8 mph 21.9 mph N/A   Partly Cloudy
2:53 PM 78.8 °F 64.4 °F 61% 29.90 in 10.0 mi SW 16.1 mph 20.7 mph N/A   Mostly Cloudy
3:53 PM 75.0 °F 66.0 °F 73% 29.89 in 10.0 mi South 13.8 mph 19.6 mph N/A   Scattered Clouds
4:53 PM 73.9 °F 66.0 °F 76% 29.88 in 10.0 mi South 13.8 mph - N/A   Scattered Clouds
5:05 PM 73.4 °F 66.2 °F 78% 29.87 in 10.0 mi South 13.8 mph - N/A   Mostly Cloudy
5:43 PM 73.4 °F 64.4 °F 73% 29.87 in 10.0 mi South 6.9 mph - N/A   Partly Cloudy
5:53 PM 73.0 °F 66.0 °F 79% 29.87 in 10.0 mi South 5.8 mph - N/A   Mostly Cloudy
6:53 PM 71.1 °F 66.0 °F 84% 29.87 in 10.0 mi South 8.1 mph - N/A   Mostly Cloudy
7:01 PM 71.6 °F 66.2 °F 83% 29.87 in 10.0 mi South 8.1 mph - N/A   Scattered Clouds
7:53 PM 70.0 °F 66.0 °F 87% 29.86 in 10.0 mi South 6.9 mph - N/A   Mostly Cloudy
8:53 PM 71.1 °F 66.9 °F 87% 29.84 in 10.0 mi South 8.1 mph - N/A   Overcast
9:08 PM 71.6 °F 66.2 °F 83% 29.84 in 10.0 mi South 6.9 mph - N/A   Overcast
9:16 PM 71.6 °F 66.2 °F 83% 29.84 in 10.0 mi South 9.2 mph - N/A   Overcast
9:53 PM 71.1 °F 68.0 °F 90% 29.84 in 9.0 mi South 12.7 mph 19.6 mph N/A   Overcast
10:53 PM 72.0 °F 69.1 °F 91% 29.83 in 9.0 mi South 13.8 mph - N/A   Overcast
11:53 PM 72.0 °F 69.1 °F 91% 29.82 in 9.0 mi South 13.8 mph - N/A   Overcast